Simultaneous Nadir Overpasses (SNOs) Predictions

Prediction of SNOs over PacNW region [( 10.00, 139.50) to ( 22.70, 165.60)] between AQUA and NPP Satellites:

Table of predicted SNOs over PacNW region for the next 30.0 days since TLE Epoch: 10/18/2019
Index Date (AQUA) Time (AQUA) AQUA Lat,Lon Date (NPP) Time (NPP) NPP Lat,Lon Distance(km) Time Diff (sec)
1 10/21/2019 15:09:49 22.61, 159.82 10/21/2019 15:11:20 23.20, 157.22 274.63 91
2 10/24/2019 03:31:38 22.66, 147.50 10/24/2019 03:28:09 24.73, 145.23 326.89 209
3 10/29/2019 15:59:14 22.59, 147.45 10/29/2019 16:02:01 23.26, 144.53 308.05 167
4 11/06/2019 15:09:44 22.64, 159.83 11/06/2019 15:11:13 23.23, 157.21 276.39 89
5 11/09/2019 03:31:33 22.65, 147.52 11/09/2019 03:28:04 24.78, 145.21 333.79 209
6 11/14/2019 15:59:07 22.63, 147.48 11/14/2019 16:01:53 23.30, 144.54 310.20 166




NCC Satellite Simultaneous Nadir Overpasses (SNOs) Prediction Service
